Regional Weather Roundup
Issued by NWS

Home | Current Version | Previous Version | Text Only | Print | Product List | Glossary On
Versions: 1 2 3 4 5 6 7 8 9 10 11 12 13 14 15 16 17 18 19 20 21 22 23 24 25 26 27 28 29 30 31 32 33 34 35 36 37 38 39 40 41 42 43 44 45 46 47 48 49 50
000
ASUS44 KOUN 261110
RWROK

WEATHER ROUNDUP FOR OKLAHOMA
NATIONAL WEATHER SERVICE NORMAN OK
600 AM CDT SAT JUL 26 2014

NOTE: "FAIR" INDICATES FEW OR NO CLOUDS BELOW 12,000 FEET WITH NO
      SIGNIFICANT WEATHER AND/OR OBSTRUCTIONS TO VISIBILITY.

OKZ001>007-009>012-014-015-017-261200-
NORTHWEST OKLAHOMA AND THE PANHANDLE

CITY           SKY/WX    TMP DP  RH WIND       PRES   REMARKS
GAGE           PTCLDY    78  59  51 S16       29.92F
ENID/WOODRING  CLEAR     72  64  78 SW5       29.89R
$$

OKZ016-021>023-033>039-044-045-261200-
SOUTHWEST OKLAHOMA

CITY           SKY/WX    TMP DP  RH WIND       PRES   REMARKS
LAWTON/REGL    CLEAR     69  64  84 CALM      29.95R
LAWTON/FT SILL CLEAR     73  65  75 CALM      29.94R
FREDERICK      CLEAR     76  65  68 S9        29.91R
CLINTON        PTCLDY    76  61  59 S14       29.96S
HOBART         CLEAR     73  63  70 S12       29.94S
ALTUS AFB        N/A    N/A N/A N/A SE5       29.91S
$$

OKZ018>020-024>031-261200-
CENTRAL OKLAHOMA

CITY           SKY/WX    TMP DP  RH WIND       PRES   REMARKS
OKLAHOMA CITY  PTCLDY    74  66  76 S9        29.93S
OKC/WILEY POST CLEAR     78  66  66 S17       29.92S
OKC/TINKER AFB CLEAR     73  67  79 S13       29.93S
STILLWATER     CLEAR     73  66  78 S7        29.90R
GUTHRIE        CLEAR     81  66  60 S13       29.90R
$$

OKZ008-013-054>072-261200-
NORTHEAST OKLAHOMA

CITY           SKY/WX    TMP DP  RH WIND       PRES   REMARKS
TULSA          PTCLDY    79  71  76 S9        29.89R
TULSA/JONES    CLEAR     77  72  84 S7        29.91R
PONCA CITY     PTCLDY    75  67  76 S5        29.89R
BARTLESVILLE   PTCLDY    72  70  93 S3        29.90R
MUSKOGEE       PTCLDY    74  71  91 S7        29.94R
$$

OKZ032-040>043-046>053-073>077-261200-
SOUTH CENTRAL/SOUTHEAST OKLAHOMA

CITY           SKY/WX    TMP DP  RH WIND       PRES   REMARKS
ARDMORE/DWNTWN CLEAR     73  68  83 CALM      29.97R
MCALESTER      PTCLDY    77  71  82 S7        29.96R
$$



USA.gov is the U.S. government's official web portal to all federal, state and local government web resources and services.